DW6479 Weather Reports


Display with metric or nautical units.
time (UTC)temp
F
wind
direction
speed
MPH
gust
MPH
rain 1hr
in
rain 24hr
in
rain mn
in
humidity
%
barometer
mb
20260503005504 65 320 4.0 6.0 0.00 0.05 0.00 80 1020.8
20260503005003 65 320 4.0 6.0 0.00 0.05 0.00 80 1020.8
20260503004503 65 320 4.0 6.0 0.00 0.05 0.00 80 1020.8
20260503004004 65 320 4.0 6.0 0.00 0.05 0.00 80 1020.8
20260503003503 65 320 4.0 6.0 0.00 0.05 0.00 80 1020.8
20260503003004 65 320 4.0 6.0 0.00 0.05 0.00 80 1020.8
20260503002007 65 320 4.0 6.0 0.00 0.05 0.00 80 1020.8
20260503001004 65 320 4.0 6.0 0.00 0.05 0.00 80 1020.8
20260503000503 65 320 4.0 6.0 0.00 0.05 0.00 80 1020.8
20260503000003 65 320 4.0 6.0 0.00 0.05 0.00 80 1020.8
20260502235504 65 320 4.0 6.0 0.00 0.05 0.00 80 1020.8
20260502235004 65 320 4.0 6.0 0.00 0.05 0.00 80 1020.8
20260502234504 65 320 4.0 6.0 0.00 0.05 0.00 80 1020.8
20260502234004 65 320 4.0 6.0 0.00 0.05 0.00 80 1020.8
20260502233503 65 320 4.0 6.0 0.00 0.05 0.00 80 1020.8
20260502233003 65 320 4.0 6.0 0.00 0.05 0.00 80 1020.8
20260502232503 65 320 4.0 6.0 0.00 0.05 0.00 80 1020.8
20260502231004 65 320 4.0 6.0 0.00 0.05 0.00 80 1020.8
20260502230503 65 320 4.0 6.0 0.00 0.05 0.00 80 1020.8
20260502230005 65 320 4.0 6.0 0.00 0.05 0.00 80 1020.8
20260502225504 65 320 4.0 6.0 0.00 0.05 0.00 80 1020.8
20260502225004 65 320 4.0 6.0 0.00 0.05 0.00 80 1020.8
20260502224504 65 320 4.0 6.0 0.00 0.05 0.00 80 1020.8
20260502224003 65 320 4.0 6.0 0.00 0.05 0.00 80 1020.8
20260502223503 65 320 4.0 6.0 0.00 0.05 0.00 80 1020.8
20260502223004 65 320 4.0 6.0 0.00 0.05 0.00 80 1020.8
20260502222504 65 320 4.0 6.0 0.00 0.06 0.00 80 1020.8
20260502222004 65 320 4.0 6.0 0.00 0.06 0.00 80 1020.8
20260502221503 65 320 4.0 6.0 0.00 0.06 0.00 80 1020.8
20260502220503 65 320 4.0 6.0 0.00 0.06 0.00 80 1020.8
20260502220003 65 320 4.0 6.0 0.00 0.06 0.00 80 1020.8
20260502215004 65 320 4.0 6.0 0.00 0.06 0.00 80 1020.8
20260502214504 65 320 4.0 6.0 0.00 0.06 0.00 80 1020.8
20260502214004 65 320 4.0 6.0 0.00 0.06 0.00 80 1020.8
20260502213504 65 320 4.0 6.0 0.00 0.06 0.00 80 1020.8
20260502213003 65 320 4.0 6.0 0.00 0.06 0.00 80 1020.8
20260502211503 65 320 4.0 6.0 0.00 0.06 0.00 80 1020.8
20260502211004 65 320 4.0 6.0 0.00 0.06 0.00 80 1020.8
20260502210504 65 320 4.0 6.0 0.00 0.06 0.00 80 1020.8
20260502210004 65 320 4.0 6.0 0.00 0.06 0.00 80 1020.8
20260502205503 65 328 4.0 6.0 0.00 0.06 0.00 80 1020.7
20260502205004 65 105 5.0 6.0 0.00 0.06 0.00 80 1020.8
20260502204504 65 100 5.0 6.0 0.00 0.06 0.00 80 1020.8
20260502204004 65 100 4.0 5.0 0.00 0.06 0.00 80 1020.5
20260502203504 64 138 4.0 5.0 0.00 0.06 0.00 80 1020.5
20260502203004 64 158 4.0 4.0 0.00 0.06 0.00 80 1020.4
20260502202503 64 157 5.0 6.0 0.00 0.06 0.00 80 1020.5
20260502201503 64 158 5.0 6.0 0.00 0.06 0.00 81 1020.4
20260502201004 64 158 2.0 6.0 0.00 0.06 0.00 80 1020.4
20260502200503 64 158 0.0 2.0 0.00 0.06 0.00 80 1020.4
20260502200004 64 158 1.0 6.0 0.00 0.06 0.00 80 1020.3
20260502195503 64 145 3.0 6.0 0.00 0.06 0.00 80 1020.2
20260502195003 64 138 4.0 6.0 0.00 0.06 0.00 81 1020.1
20260502194503 64 135 4.0 6.0 0.00 0.06 0.00 81 1019.9
20260502193504 64 181 5.0 7.0 0.00 0.06 0.00 81 1020.1
20260502193003 64 202 6.0 7.0 0.00 0.06 0.00 81 1020.2
20260502192504 64 203 4.0 7.0 0.00 0.06 0.00 81 1020.2
20260502191004 64 185 3.0 4.0 0.00 0.06 0.00 82 1020.0
20260502190503 64 181 3.0 4.0 0.00 0.06 0.00 82 1020.1
20260502190004 64 181 3.0 4.0 0.00 0.06 0.00 82 1020.0
20260502185508 64 181 1.0 4.0 0.00 0.06 0.00 82 1020.1
20260502185004 65 181 1.0 4.0 0.00 0.06 0.00 82 1019.9
20260502184503 65 181 2.0 4.0 0.00 0.06 0.00 82 1019.9
20260502184004 65 181 2.0 4.0 0.00 0.06 0.00 82 1019.8
20260502183504 65 181 2.0 5.0 0.00 0.06 0.00 82 1020.0
20260502182504 65 181 4.0 4.0 0.00 0.06 0.00 82 1020.0
20260502182004 65 181 4.0 7.0 0.00 0.06 0.00 82 1020.0
20260502181504 65 181 4.0 7.0 0.00 0.06 0.00 82 1019.9
20260502181004 65 181 5.0 7.0 0.00 0.06 0.00 82 1019.9
20260502180503 65 133 5.0 6.0 0.00 0.06 0.00 82 1020.0
20260502170503 65 46 2.0 4.0 0.00 0.06 0.00 85 1020.1
20260502164004 65 45 3.0 4.0 0.00 0.06 0.00 85 1020.3
20260502163504 65 45 3.0 4.0 0.00 0.06 0.00 86 1020.3
20260502163004 65 42 1.0 4.0 0.00 0.06 0.00 86 1020.4
20260502162504 65 248 1.0 4.0 0.00 0.06 0.00 86 1020.4
20260502162003 65 248 2.0 4.0 0.00 0.06 0.00 86 1020.3
20260502161504 65 248 2.0 4.0 0.00 0.06 0.00 86 1020.3
20260502161004 65 248 0.0 1.0 0.00 0.06 0.00 86 1020.4
20260502160504 65 248 1.0 3.0 0.00 0.09 0.00 87 1020.4
20260502151504 66 248 0.0 3.0 0.00 0.09 0.00 88 1021.0
20260502150504 66 0 0.0 0.0 0.00 0.09 0.00 88 1020.9
20260502121504 69 0 0.0 0.0 0.00 0.09 0.09 83 1021.8
20260502120503 69 0 0.0 0.0 0.00 0.09 0.09 83 1021.7
20260502115504 69 0 0.0 0.0 0.00 0.09 0.09 82 1021.6
20260502115004 70 181 1.0 4.0 0.00 0.09 0.09 82 1021.5
20260502114503 70 181 3.0 5.0 0.00 0.09 0.09 82 1021.6
20260502114008 70 181 4.0 6.0 0.02 0.09 0.09 82 1021.4
20260502113504 70 181 5.0 7.0 0.02 0.09 0.09 82 1021.5
20260502113004 70 181 7.0 11.0 0.02 0.09 0.09 82 1021.3
20260502112503 70 181 7.0 11.0 0.02 0.09 0.09 82 1021.4
20260502112004 70 181 5.0 11.0 0.02 0.12 0.09 82 1021.4
20260502111504 70 183 2.0 7.0 0.02 0.13 0.09 82 1021.4
20260502111004 70 188 1.0 3.0 0.02 0.14 0.09 82 1021.4
20260502110006 70 137 2.0 3.0 0.02 0.17 0.09 81 1021.5
20260502105003 70 63 3.0 5.0 0.02 0.19 0.09 80 1021.4
20260502104503 70 325 2.0 5.0 0.01 0.19 0.08 80 1021.4
20260502103503 70 4 1.0 1.0 0.00 0.18 0.07 80 1021.5
20260502103004 70 45 1.0 1.0 0.00 0.18 0.07 79 1021.3
20260502102503 70 45 1.0 1.0 0.00 0.18 0.07 79 1021.5
20260502101503 70 45 1.0 1.0 0.00 0.18 0.07 78 1021.2
20260502101004 70 45 1.0 1.0 0.00 0.18 0.07 78 1021.3
20260502100504 70 45 1.0 1.0 0.00 0.18 0.07 77 1021.4
20260502091503 71 23 3.0 4.0 0.00 0.20 0.07 77 1020.7
20260502090504 71 22 4.0 6.0 0.00 0.20 0.07 77 1020.6
20260502071503 72 27 6.0 8.0 0.00 0.19 0.06 77 1019.7
20260502071004 72 166 6.0 8.0 0.00 0.19 0.06 77 1019.6
20260502070504 72 181 7.0 8.0 0.00 0.19 0.06 74 1019.6
20260502070004 72 181 7.0 8.0 0.00 0.19 0.06 74 1019.7
20260502065504 73 181 7.0 10.0 0.00 0.19 0.06 74 1019.7
20260502065004 73 173 7.0 10.0 0.00 0.19 0.06 74 1019.5
20260502064504 73 57 5.0 10.0 0.00 0.19 0.06 74 1019.6
20260502064004 73 23 3.0 6.0 0.00 0.19 0.06 74 1019.5
20260502063504 73 23 4.0 6.0 0.00 0.19 0.06 74 1019.4
20260502063004 73 35 5.0 6.0 0.00 0.19 0.06 75 1019.5
20260502062004 73 46 3.0 5.0 0.00 0.19 0.06 76 1019.5
20260502061503 73 36 4.0 5.0 0.00 0.19 0.06 76 1019.4
20260502061004 73 24 4.0 5.0 0.00 0.19 0.06 76 1019.6
20260502060504 73 23 4.0 5.0 0.01 0.19 0.06 75 1019.5
20260502060004 73 113 5.0 8.0 0.01 0.19 0.06 75 1019.3
20260502055504 73 183 4.0 8.0 0.01 0.19 0.06 74 1019.5
20260502055003 74 159 5.0 10.0 0.01 0.19 0.06 73 1019.5
20260502054503 74 170 7.0 10.0 0.01 0.19 0.06 72 1019.5
20260502054004 74 198 6.0 10.0 0.01 0.19 0.06 71 1019.4
20260502053004 74 198 5.0 8.0 0.01 0.19 0.06 72 1019.3
20260502052003 74 148 6.0 10.0 0.01 0.19 0.06 72 1019.5
20260502051504 75 155 7.0 11.0 0.01 0.19 0.06 71 1019.4
20260502051004 75 194 9.0 15.0 0.01 0.19 0.06 70 1019.4
20260502050504 76 177 10.0 15.0 0.00 0.18 0.05 68 1019.6
20260502050004 76 140 10.0 13.0 0.00 0.18 0.05 66 1019.5
20260502045504 76 135 11.0 15.0 0.00 0.18 0.05 66 1019.7
20260502045002 76 135 11.0 15.0 0.00 0.18 0.05 65 1019.4
20260502044503 77 139 10.0 14.0 0.00 0.18 0.05 65 1019.4
20260502044003 76 152 10.0 15.0 0.00 0.18 0.05 64 1019.6
20260502043503 76 149 12.0 16.0 0.00 0.18 0.05 63 1019.5
20260502043002 77 113 11.0 16.0 0.00 0.18 0.05 63 1019.5
20260502042502 77 101 12.0 15.0 0.00 0.18 0.05 62 1019.5
20260502042003 78 111 12.0 15.0 0.00 0.18 0.05 61 1019.3
20260502041503 78 99 10.0 16.0 0.00 0.18 0.05 61 1019.3
20260502040503 78 83 11.0 15.0 0.00 0.18 0.05 61 1019.5
20260502040003 77 109 10.0 15.0 0.00 0.18 0.05 62 1019.6
20260502035503 77 141 10.0 12.0 0.00 0.18 0.05 62 1019.5
20260502034503 77 153 10.0 17.0 0.00 0.18 0.05 63 1019.4
20260502034003 77 122 9.0 14.0 0.00 0.18 0.05 63 1019.4
20260502033503 77 104 12.0 18.0 0.00 0.18 0.05 62 1019.6
20260502032503 78 125 10.0 18.0 0.00 0.18 0.05 61 1019.5
20260502032003 78 127 11.0 18.0 0.00 0.18 0.05 63 1019.6
20260502031002 78 84 13.0 18.0 0.00 0.18 0.05 62 1019.8
20260502030503 78 79 12.0 16.0 0.00 0.18 0.05 62 1019.8
20260502030003 78 98 13.0 16.0 0.00 0.18 0.05 62 1020.1
20260502025503 78 133 12.0 16.0 0.00 0.18 0.05 62 1020.0
20260502025003 78 151 11.0 15.0 0.00 0.18 0.05 62 1019.9
20260502024503 78 120 11.0 15.0 0.00 0.18 0.05 63 1020.1
20260502024003 78 84 8.0 12.0 0.00 0.18 0.05 62 1020.1
20260502023003 78 111 3.0 11.0 0.00 0.18 0.05 61 1020.3
20260502022503 78 108 7.0 11.0 0.00 0.18 0.05 61 1020.6
20260502022003 78 91 8.0 10.0 0.00 0.18 0.05 61 1020.5
20260502021503 78 84 7.0 8.0 0.00 0.18 0.05 62 1020.6
20260502021003 78 99 6.0 7.0 0.00 0.18 0.05 62 1020.7
20260502020503 78 138 6.0 9.0 0.00 0.18 0.05 62 1020.5
20260502020003 78 130 8.0 10.0 0.00 0.18 0.05 63 1020.8
20260502015003 78 121 7.0 10.0 0.00 0.18 0.05 62 1021.0
20260502013503 78 103 9.0 10.0 0.00 0.18 0.05 63 1021.0
20260502013005 78 132 9.0 10.0 0.00 0.18 0.05 62 1020.9
20260502012003 78 103 9.0 11.0 0.00 0.18 0.05 63 1020.9
20260502011503 78 94 9.0 11.0 0.00 0.18 0.05 61 1021.3
20260502010003 78 149 10.0 11.0 0.00 0.18 0.05 62 1021.7